Regional Weather Roundup
Issued by NWS

Home | Current Version | Previous Version | Text Only | Print | Product List | Glossary Off
Versions: 1 2 3 4 5 6 7 8 9 10 11 12 13 14 15 16 17 18 19 20 21 22 23 24 25 26 27 28 29 30 31 32 33 34 35 36 37 38 39 40 41 42 43 44 45 46 47 48 49 50

000
ASUS43 KLOT 272358
RWRIL

ILLINOIS REGIONAL WEATHER ROUNDUP
NATIONAL WEATHER SERVICE CHICAGO/ROMEOVILLE IL
700 PM CDT WED AUG 27 2014

NOTE: "FAIR" INDICATES FEW OR NO CLOUDS BELOW 12,000 FEET WITH NO
SIGNIFICANT WEATHER AND/OR OBSTRUCTIONS TO VISIBILITY.

* THESE STATIONS ARE NOT UNDER NWS QUALITY CONTROL. THEY ALSO MAY NOT
  REPORT WEATHER SUCH AS PRECIPITATION OR FOG.

ILZ001-002-007-009-015-016-024-280100-
NORTHWEST ILLINOIS

CITY           SKY/WX    TMP DP  RH WIND       PRES   REMARKS
MOLINE         MOCLDY    76  62  62 E8        30.08S
6HR MIN TEMP:  76; 6HR MAX TEMP:  80;

$$

ILZ003-004-008-010-011-017-018-280100-
NORTH CENTRAL ILLINOIS

CITY           SKY/WX    TMP DP  RH WIND       PRES   REMARKS
ROCKFORD       NOT AVBL
$$

ILZ005-006-012>014-019>023-280100-
NORTHEAST ILLINOIS

CITY           SKY/WX    TMP DP  RH WIND       PRES   REMARKS
CHICAGO-OHARE  CLOUDY    71  59  65 NE10      30.10F
6HR MIN TEMP:  71; 6HR MAX TEMP:  82;

CHICAGO-MIDWAY MOCLDY    73  62  68 E12       30.11F
6HR MIN TEMP:  73; 6HR MAX TEMP:  81;

AURORA         CLOUDY    74  64  71 E9        30.10F
6HR MIN TEMP:  74; 6HR MAX TEMP:  82;

WAUKEGAN       CLOUDY    68  61  78 NE6       30.11F
6HR MIN TEMP:  68; 6HR MAX TEMP:  74;

DUPAGE AIRPORT CLOUDY    72  63  73 NE8       30.10F
6HR MIN TEMP:  72; 6HR MAX TEMP:  84;

WHEELING       CLOUDY    71  62  73 NE7       30.12F
6HR MIN TEMP:  71; 6HR MAX TEMP:  79;

NORTHERLY ISL    N/A     70  62  76 N10         N/A
$$

LMZ740>746-280100-
SOUTHERN LAKE MICHIGAN

STATION/POSITION SKY/WX   TEMP    WIND        PRES    VSBY  WAVE
                          AIR SEA DIR/SP/G                  HT/PER
                          (F)     (DEG/KT/KT) (MB)    (MI)  (FT/S)
SOUTHERN BUOY              67 70   10/ 12/ 14 1020.4F         1
WAUKEGAN HARBOR            69      60/  9/ 10   N/A
HARRISON CRIB              69      50/ 11/ 13   N/A
BURNHAM HARBOR             70      40/  8/ 12   N/A
CALUMET HARBOR             70      20/  7/ 12 1018.3F
MICHIGAN CITY              70      10/ 12/ 14   N/A
MICHIGAN CITY 6N           71 74   40/ 12/ 14   N/A           2/ 3
ST. JOSEPH                 71 73   10/ 14/ 17   N/A           2/ 3
$$

ILZ025>027-034>036-040-047-049-050-058-095>099-280100-
WEST-CENTRAL ILLINOIS

CITY           SKY/WX    TMP DP  RH WIND       PRES   REMARKS
$$

ILZ028>032-037-038-041>044-048-051>054-059>061-280100-
CENTRAL ILLINOIS

CITY           SKY/WX    TMP DP  RH WIND       PRES   REMARKS
PEORIA         NOT AVBL
SPRINGFIELD    PTCLDY    80  73  79 N5        30.06R HX  84
6HR MIN TEMP:  76; 6HR MAX TEMP:  86; 6HR PCP:  0.02;

TAYLORVILLE    NOT AVBL
$$

ILZ033-039-045-046-055>057-062-063-280100-
EAST-CENTRAL ILLINOIS

CITY           SKY/WX    TMP DP  RH WIND       PRES   REMARKS
$$

ILZ079-100>102-280100-
SOUTHWEST ILLINOIS

CITY           SKY/WX    TMP DP  RH WIND       PRES   REMARKS
$$

ILZ064>066-069>071-074>076-080>082-084>086-088>090-092>094-280100-
SOUTH-CENTRAL ILLINOIS

CITY           SKY/WX    TMP DP  RH WIND       PRES   REMARKS
CARBONDALE     MOCLDY    85  76  74 N5        30.02S HX  94
6HR MIN TEMP:  85; 6HR MAX TEMP:  94;

CENTRALIA*       N/A    N/A N/A N/A E6        30.04
$$

ILZ067-068-072-073-078-083-087-091-280100-
SOUTHEAST ILLINOIS

CITY           SKY/WX    TMP DP  RH WIND       PRES   REMARKS
$$

ABBREVIATIONS USED IN REMARKS
   TC - TEMPERATURE IN CELSIUS
  WCI - WIND CHILL INDEX
   HX - HEAT INDEX
  VSB - VISIBILITY
$$




USA.gov is the U.S. government's official web portal to all federal, state and local government web resources and services.